Weather History for Toronto, ON

Change the Weather History Date:

Monday, October 15, 2012

  Actual Average Record
Temperature  
Mean Temperature 50 °F -  
Max Temperature 57 °F 50 °F 62 °F (2005)
Min Temperature 44 °F 40 °F 35 °F (1996)
Degree Days  
Heating Degree Days 14    
Moisture  
Dew Point 44 °F    
Average Humidity 77    
Maximum Humidity 88    
Minimum Humidity 58    
Precipitation  
Precipitation 0.01 in 0.09 in - ()
Sea Level Pressure  
Sea Level Pressure 29.60 in    
Wind  
Wind Speed 17 mph ()    
Max Wind Speed 31 mph    
Max Gust Speed 46 mph    
Visibility 8.8 miles    
Events Rain    
Averages and records for this station are not official NWS values.
T = Trace of Precipitation, MM = Missing Value Source: Averaged Metar Reports

Daily Weather History Graph

Daily Weather History Graph

Search for Another Location

Airport:

Trip Planner

Search our weather history database for the weather conditions in past years. The results will help you decide how hot, cold, wet, or windy it might be!

Date:

Astronomy

Oct. 15, 2012 Rise Set
Actual Time 7:32 AM EDT 6:33 PM EDT
Civil Twilight 7:03 AM EDT 7:02 PM EDT
Nautical Twilight 6:30 AM EDT 7:35 PM EDT
Astronomical Twilight 5:56 AM EDT 8:08 PM EDT
Moon 7:42 AM EDT (10/15) 6:29 PM EDT (10/15)
Length of Visible Light 11h 58m
Length of Day
11h 01m
New Moon, 0% of the Moon is Illuminated
Oct 15
New Moon
Oct 21
First Quarter
Oct 29
Full
Nov 6
Last Quarter
Nov 13
New

Hourly Weather History & Observations

Time (EDT) Temp. Windchill Dew Point Humidity Pressure Visibility Wind Dir Wind Speed Gust Speed Precip Events Conditions
12:00 AM 59.0 °F - 53.6 °F 82% 29.51 in 9.0 mi WSW 6.9 mph - N/A   Overcast
1:00 AM 55.4 °F - 51.8 °F 88% 29.48 in 9.0 mi SSW 4.6 mph - N/A   Mostly Cloudy
2:00 AM 54 °F - 51 °F 84% 29.46 in 10 mi SSW 8.1 mph - -  
2:00 AM 53.6 °F - 50.0 °F 88% 29.45 in 9.0 mi SSW 9.2 mph - N/A   Mostly Cloudy
2:48 AM 55.4 °F - 51.8 °F 88% 29.44 in 8.0 mi SSW 24.2 mph 35.7 mph N/A Rain Light Rain
3:00 AM 57.2 °F - 53.6 °F 88% 29.43 in 9.0 mi SSW 27.6 mph 46.0 mph N/A Rain Light Rain
3:05 AM 57.2 °F - 53.6 °F 88% 29.42 in 9.0 mi SSW 27.6 mph 36.8 mph N/A   Overcast
4:00 AM 55.4 °F - 50.0 °F 82% 29.43 in 9.0 mi SSW 31.1 mph 39.1 mph N/A   Mostly Cloudy
5:00 AM 51.8 °F - 48.2 °F 88% 29.45 in 9.0 mi SSW 21.9 mph 27.6 mph N/A   Overcast
5:37 AM 51.8 °F - 48.2 °F 88% 29.47 in 9.0 mi SW 24.2 mph - N/A   Overcast
5:41 AM 51.8 °F - 48.2 °F 88% 29.47 in 9.0 mi SW 23.0 mph 28.8 mph N/A Rain Light Rain
5:51 AM 53.6 °F - 46.4 °F 77% 29.48 in 9.0 mi WSW 21.9 mph 29.9 mph N/A   Overcast
5:52 AM 53.6 °F - 46.4 °F 77% 29.48 in 9.0 mi WSW 23.0 mph 29.9 mph N/A   Overcast
6:00 AM 53.6 °F - 48.2 °F 82% 29.49 in 9.0 mi WSW 19.6 mph 28.8 mph N/A   Overcast
6:53 AM 53.6 °F - 44.6 °F 72% 29.53 in 9.0 mi WSW 31.1 mph 38.0 mph N/A   Overcast
7:00 AM 53.6 °F - 44.6 °F 72% 29.54 in 9.0 mi WSW 28.8 mph 38.0 mph N/A   Overcast
8:00 AM 51 °F - 44 °F 70% 29.56 in 10 mi WSW 20.7 mph - -   Overcast
8:00 AM 51.8 °F - 44.6 °F 76% 29.56 in 9.0 mi WSW 21.9 mph - N/A   Overcast
9:00 AM 50.0 °F - 44.6 °F 82% 29.58 in 9.0 mi SW 16.1 mph - N/A   Overcast
10:00 AM 50.0 °F - 42.8 °F 76% 29.60 in 9.0 mi WSW 20.7 mph 26.5 mph N/A   Overcast
11:00 AM 51.8 °F - 42.8 °F 71% 29.61 in 9.0 mi West 19.6 mph 31.1 mph N/A   Overcast
12:00 PM 50.0 °F - 42.8 °F 76% 29.62 in 9.0 mi WSW 18.4 mph 25.3 mph N/A   Overcast
1:00 PM 50.0 °F - 42.8 °F 76% 29.64 in 9.0 mi WSW 21.9 mph - N/A   Overcast
2:00 PM 51 °F - 43 °F 65% 29.64 in 10 mi WSW 23.0 mph - -   Overcast
2:00 PM 51.8 °F - 42.8 °F 71% 29.64 in 9.0 mi WSW 21.9 mph 29.9 mph N/A   Overcast
2:14 PM 51.8 °F - 42.8 °F 71% 29.64 in 9.0 mi WSW 21.9 mph 31.1 mph N/A Rain Light Rain
2:35 PM 50.0 °F - 44.6 °F 82% 29.64 in 9.0 mi WSW 19.6 mph 28.8 mph N/A   Overcast
3:00 PM 50.0 °F - 42.8 °F 76% 29.64 in 9.0 mi WSW 26.5 mph 34.5 mph N/A   Overcast
3:03 PM 50.0 °F - 44.6 °F 82% 29.64 in 5.0 mi WSW 27.6 mph 34.5 mph N/A   Haze
3:04 PM 50.0 °F - 44.6 °F 82% 29.64 in 5.0 mi WSW 27.6 mph 34.5 mph N/A Rain Light Rain
3:11 PM 50.0 °F - 44.6 °F 82% 29.64 in 7.0 mi West 26.5 mph 35.7 mph N/A Rain Light Rain
3:19 PM 50.0 °F - 44.6 °F 82% 29.65 in 9.0 mi West 20.7 mph 35.7 mph N/A   Overcast
4:00 PM 50.0 °F - 42.8 °F 76% 29.66 in 9.0 mi West 17.3 mph 26.5 mph N/A   Overcast
5:00 PM 51.8 °F - 37.4 °F 58% 29.69 in 9.0 mi West 23.0 mph 32.2 mph N/A   Mostly Cloudy
6:00 PM 48.2 °F - 37.4 °F 66% 29.72 in 9.0 mi WNW 17.3 mph 24.2 mph N/A   Mostly Cloudy
6:36 PM 46.4 °F 39.2 °F 37.4 °F 71% 29.73 in 9.0 mi West 18.4 mph 26.5 mph N/A Rain Light Rain
7:00 PM 46.4 °F 39.8 °F 37.4 °F 71% 29.74 in 9.0 mi WNW 16.1 mph 23.0 mph N/A Rain Light Rain
8:00 PM 45 °F - 37 °F 65% 29.78 in 10 mi West 15.0 mph - - Rain Light Rain
8:00 PM 44.6 °F 37.8 °F 37.4 °F 76% 29.77 in 9.0 mi West 15.0 mph 20.7 mph N/A Rain Light Rain
8:15 PM 44.6 °F 36.9 °F 37.4 °F 76% 29.78 in 9.0 mi West 18.4 mph 24.2 mph N/A   Overcast
9:00 PM 44.6 °F 37.4 °F 35.6 °F 71% 29.79 in 9.0 mi West 16.1 mph - N/A   Overcast
10:00 PM 44.6 °F 37.8 °F 35.6 °F 71% 29.81 in 9.0 mi West 15.0 mph 21.9 mph N/A   Mostly Cloudy
11:00 PM 44.6 °F 40.2 °F 35.6 °F 71% 29.82 in 9.0 mi West 8.1 mph - N/A   Scattered Clouds